Stündliche Wetter Otradinskiy

Heute, 14 April, Mittwoch

Zeit Temperatur Niederschläge Wind Luftdruck Luftfeuchtigkeit
00:00 +12°C° 0 mm 3 m/S 748 mmHg 80%
01:00 +11°C° 0 mm 3 m/S 748 mmHg 86%
02:00 +10°C° 0 mm 3 m/S 748 mmHg 92%
03:00 +10°C° 0 mm 3 m/S 748 mmHg 92%
04:00 +9°C° 0 mm 3 m/S 748 mmHg 93%
05:00 +9°C° 0 mm 2 m/S 748 mmHg 94%
06:00 +10°C° 0 mm 2 m/S 748 mmHg 88%
07:00 +12°C° 0 mm 2 m/S 748 mmHg 83%
08:00 +13°C° 0 mm 2 m/S 748 mmHg 77%
09:00 +15°C° 0 mm 2 m/S 748 mmHg 71%
10:00 +16°C° 0 mm 3 m/S 747 mmHg 65%
11:00 +17°C° 0 mm 3 m/S 747 mmHg 59%
12:00 +18°C° 0 mm 3 m/S 747 mmHg 53%
13:00 +19°C° 0 mm 3 m/S 746 mmHg 46%
14:00 +19°C° 0 mm 3 m/S 746 mmHg 39%
15:00 +19°C° 0 mm 3 m/S 746 mmHg 41%
16:00 +18°C° 0 mm 2 m/S 745 mmHg 42%
17:00 +18°C° 0 mm 2 m/S 745 mmHg 43%
18:00 +17°C° 0 mm 2 m/S 745 mmHg 45%
19:00 +16°C° 0 mm 2 m/S 745 mmHg 46%
20:00 +13°C° 0 mm 3 m/S 745 mmHg 48%
21:00 +14°C° 0 mm 2 m/S 745 mmHg 49%
22:00 +13°C° 0 mm 2 m/S 745 mmHg 50%
23:00 +13°C° 0 mm 2 m/S 744 mmHg 51%

Morgen, 15 April, Donnerstag

Zeit Temperatur Niederschläge Wind Luftdruck Luftfeuchtigkeit
00:00 +13°C° 0 mm 2 m/S 744 mmHg 53%
01:00 +12°C° 0 mm 2 m/S 744 mmHg 54%
02:00 +11°C° 0 mm 3 m/S 744 mmHg 56%
03:00 +11°C° 0 mm 3 m/S 744 mmHg 56%
04:00 +11°C° 0 mm 3 m/S 744 mmHg 56%
05:00 +11°C° 0 mm 3 m/S 744 mmHg 57%
06:00 +12°C° 0 mm 4 m/S 744 mmHg 58%
07:00 +12°C° 0 mm 4 m/S 744 mmHg 58%
08:00 +13°C° 0 mm 4 m/S 744 mmHg 59%
09:00 +14°C° 0 mm 5 m/S 743 mmHg 55%
10:00 +15°C° 0 mm 5 m/S 743 mmHg 50%
11:00 +17°C° 0 mm 6 m/S 743 mmHg 46%
12:00 +16°C° 0.1 mm 5 m/S 743 mmHg 48%
13:00 +16°C° 0.1 mm 5 m/S 743 mmHg 50%
14:00 +17°C° 0.1 mm 4 m/S 743 mmHg 52%
15:00 +16°C° 0.3 mm 3 m/S 743 mmHg 55%
16:00 +16°C° 0.3 mm 3 m/S 743 mmHg 58%
17:00 +16°C° 0.3 mm 2 m/S 743 mmHg 62%
18:00 +15°C° 0.3 mm 2 m/S 743 mmHg 65%
19:00 +14°C° 0.3 mm 2 m/S 743 mmHg 68%
20:00 +13°C° 0.3 mm 2 m/S 744 mmHg 72%
21:00 +13°C° 0 mm 2 m/S 744 mmHg 72%
22:00 +12°C° 0 mm 2 m/S 744 mmHg 72%
23:00 +12°C° 0 mm 2 m/S 744 mmHg 72%

übermorgen, 16 April, Freitag

Zeit Temperatur Niederschläge Wind Luftdruck Luftfeuchtigkeit
00:00 +12°C° 0 mm 2 m/S 744 mmHg 74%
01:00 +10°C° 0 mm 2 m/S 744 mmHg 76%
02:00 +10°C° 0 mm 2 m/S 744 mmHg 79%
03:00 +9°C° 0 mm 2 m/S 744 mmHg 80%
04:00 +9°C° 0 mm 2 m/S 744 mmHg 80%
05:00 +9°C° 0 mm 2 m/S 744 mmHg 81%
06:00 +10°C° 0.1 mm 3 m/S 745 mmHg 80%
07:00 +10°C° 0.1 mm 4 m/S 745 mmHg 78%
08:00 +11°C° 0.1 mm 4 m/S 745 mmHg 76%
09:00 +12°C° 0.5 mm 4 m/S 745 mmHg 74%
10:00 +12°C° 0.5 mm 4 m/S 745 mmHg 71%
11:00 +13°C° 0.5 mm 4 m/S 746 mmHg 69%
12:00 +13°C° 0.6 mm 4 m/S 746 mmHg 66%
13:00 +14°C° 0.6 mm 5 m/S 746 mmHg 64%
14:00 +15°C° 0.6 mm 5 m/S 746 mmHg 61%
15:00 +14°C° 0.4 mm 5 m/S 746 mmHg 62%
16:00 +14°C° 0.4 mm 4 m/S 746 mmHg 64%
17:00 +13°C° 0.4 mm 4 m/S 746 mmHg 65%
18:00 +13°C° 0.1 mm 3 m/S 746 mmHg 68%
19:00 +13°C° 0.1 mm 2 m/S 746 mmHg 70%
20:00 +12°C° 0.1 mm 1 m/S 747 mmHg 73%
21:00 +11°C° 0 mm 1 m/S 747 mmHg 76%
22:00 +10°C° 0 mm 2 m/S 747 mmHg 79%
23:00 +9°C° 0 mm 2 m/S 747 mmHg 82%

17 April, Samstag

Zeit Temperatur Niederschläge Wind Luftdruck Luftfeuchtigkeit
00:00 +9°C° 0.2 mm 2 m/S 747 mmHg 86%
01:00 +9°C° 0.2 mm 3 m/S 747 mmHg 90%
02:00 +9°C° 0.2 mm 3 m/S 747 mmHg 94%
03:00 +8°C° 0 mm 3 m/S 747 mmHg 94%
04:00 +7°C° 0 mm 4 m/S 747 mmHg 95%
05:00 +7°C° 0 mm 4 m/S 747 mmHg 96%
06:00 +7°C° 0 mm 5 m/S 748 mmHg 93%
07:00 +8°C° 0 mm 6 m/S 748 mmHg 90%
08:00 +9°C° 0 mm 6 m/S 748 mmHg 87%
09:00 +10°C° 0 mm 7 m/S 748 mmHg 79%
10:00 +12°C° 0 mm 7 m/S 747 mmHg 72%
11:00 +13°C° 0 mm 8 m/S 747 mmHg 65%
12:00 +15°C° 0 mm 8 m/S 747 mmHg 63%
13:00 +15°C° 0 mm 8 m/S 747 mmHg 61%
14:00 +16°C° 0 mm 8 m/S 747 mmHg 60%
15:00 +15°C° 0.4 mm 8 m/S 747 mmHg 62%
16:00 +14°C° 0.4 mm 7 m/S 748 mmHg 65%
17:00 +14°C° 0.4 mm 7 m/S 748 mmHg 67%
18:00 +13°C° 0.3 mm 6 m/S 748 mmHg 72%
19:00 +12°C° 0.3 mm 5 m/S 748 mmHg 77%
20:00 +10°C° 0.3 mm 4 m/S 749 mmHg 82%
21:00 +10°C° 0.2 mm 4 m/S 749 mmHg 83%
22:00 +10°C° 0.2 mm 4 m/S 749 mmHg 84%
23:00 +8°C° 0.2 mm 4 m/S 749 mmHg 85%

18 April, Sonntag

Zeit Temperatur Niederschläge Wind Luftdruck Luftfeuchtigkeit
00:00 +8°C° 0.1 mm 4 m/S 749 mmHg 84%
01:00 +8°C° 0.1 mm 4 m/S 749 mmHg 82%
02:00 +7°C° 0.1 mm 4 m/S 750 mmHg 81%
03:00 +7°C° 0.2 mm 4 m/S 750 mmHg 81%
04:00 +7°C° 0.2 mm 4 m/S 750 mmHg 81%
05:00 +6°C° 0.2 mm 4 m/S 750 mmHg 81%
06:00 +6°C° 0 mm 4 m/S 750 mmHg 79%
07:00 +7°C° 0 mm 4 m/S 750 mmHg 77%
08:00 +7°C° 0 mm 5 m/S 751 mmHg 75%
09:00 +7°C° 0 mm 5 m/S 751 mmHg 75%
10:00 +7°C° 0 mm 5 m/S 751 mmHg 75%
11:00 +7°C° 0 mm 5 m/S 751 mmHg 75%
12:00 +8°C° 0 mm 5 m/S 751 mmHg 74%
13:00 +8°C° 0 mm 5 m/S 751 mmHg 73%
14:00 +8°C° 0 mm 5 m/S 752 mmHg 72%
15:00 +8°C° 0 mm 5 m/S 752 mmHg 70%
16:00 +10°C° 0 mm 4 m/S 752 mmHg 68%
17:00 +10°C° 0 mm 3 m/S 752 mmHg 66%
18:00 +9°C° 0 mm 3 m/S 752 mmHg 69%
19:00 +8°C° 0 mm 2 m/S 752 mmHg 72%
20:00 +9°C° 0 mm 1 m/S 752 mmHg 75%
21:00 +7°C° 0 mm 2 m/S 752 mmHg 75%
22:00 +7°C° 0 mm 2 m/S 752 mmHg 76%
23:00 +6°C° 0 mm 2 m/S 752 mmHg 76%

19 April, Montag

Zeit Temperatur Niederschläge Wind Luftdruck Luftfeuchtigkeit
00:00 +6°C° 0 mm 2 m/S 752 mmHg 78%
01:00 +4°C° 0 mm 3 m/S 752 mmHg 80%
02:00 +4°C° 0 mm 3 m/S 753 mmHg 82%
03:00 +3°C° 0 mm 3 m/S 753 mmHg 84%
04:00 +3°C° 0 mm 3 m/S 753 mmHg 86%
05:00 +3°C° 0 mm 3 m/S 753 mmHg 88%
06:00 +5°C° 0 mm 4 m/S 753 mmHg 82%
07:00 +6°C° 0 mm 4 m/S 753 mmHg 76%
08:00 +8°C° 0 mm 5 m/S 753 mmHg 70%
09:00 +9°C° 0 mm 5 m/S 753 mmHg 65%
10:00 +10°C° 0 mm 6 m/S 754 mmHg 59%
11:00 +11°C° 0 mm 6 m/S 754 mmHg 54%
12:00 +12°C° 0 mm 5 m/S 754 mmHg 54%
13:00 +12°C° 0 mm 5 m/S 753 mmHg 54%
14:00 +12°C° 0 mm 5 m/S 753 mmHg 53%
15:00 +12°C° 0 mm 5 m/S 753 mmHg 56%
16:00 +10°C° 0 mm 5 m/S 754 mmHg 59%
17:00 +10°C° 0 mm 5 m/S 754 mmHg 62%
18:00 +9°C° 0 mm 5 m/S 754 mmHg 65%
19:00 +8°C° 0 mm 4 m/S 754 mmHg 67%
20:00 +8°C° 0 mm 4 m/S 754 mmHg 69%
21:00 +7°C° 0 mm 4 m/S 754 mmHg 70%
22:00 +6°C° 0 mm 4 m/S 754 mmHg 72%
23:00 +6°C° 0 mm 4 m/S 754 mmHg 73%
Mehr zeigen

Wir brauchen deine Erlaubnis

Meteoprog und unser Service Anbieter werden persönliche Daten aufbewahren, so wie Cookies, Geräte Bezeichnung oder ähnliche Technologien von deinem Gerät und Prozess, so wie Persönliche Daten Inhalte und Werbungen, genauso wie social Media und den Verkehr zu analysieren.

  • Aufbewahrung und/oder Zugang zu deiner Geräte Informationen.

    Cookies, Geräte Bezeichnung oder andere Informationen, können aufbewahrt oder Zugang zu deinem Gerät erhalten, für den Grund, der oben angegeben wird.

  • Personalisierte Werbung und Inhalte, Messungen, Einblick in das Publikum und Produkt Entwicklung.

    Werbungen und Inhalte können personalisiert werden, basierend auf ein Profil. Mehr Daten können besser personalisierte Werbungen und Inhalte hinzufügen. Werbung und Inhalte können gezeigt und gemessen werden. Einblicke über das Publikum, welche die Werbung gesehen haben und den Inhalt, können abgeleitet werden. So wie Daten können genutzt werden, um es zu verbessern oder die Benutzer Erfahrung zu verbessern das System und die Software.

Wenn du “Ich stimme zu” klickst, erlaubst du uns, die Cookies zu benutzen die Geräte Bezeichnung, den Web oder ähnliche Technologien zu benutzen. Deine Settings, können in deinem Gerät bei deinem Browser geändert werden.

Für den bestimmten Zweck, berechtigten Interessen beruhen darauf, mehr als auf den Inhalt. Du kannst mehr darüber in unseren Privaten und Cookie Politik lesen.